Theta_e
308 309 312 312 313 316 319 323 323 323 323 324 324 325 325 326 325 325 326 325 326 326 325 326 330 331 328 333 337 335 340 347 348 350 348 346 344 341 339 337 333 334 334 335
311 309 311 313 314 315 316 316 317 320 322 322 324 325 325 326 325 325 326 326 325 325 325 326 329 331 335 336 338 342 344 350 350 349 348 346 344 338 335 334 333 333 335 336
311 313 312 313 315 316 315 315 316 316 318 319 320 321 322 323 324 325 325 325 325 326 326 326 325 333 338 340 343 346 351 351 350 349 347 346 341 337 336 334 333 334 334 334
306 310 315 313 313 315 316 316 316 317 318 319 320 322 322 322 324 325 325 324 323 323 325 324 324 336 339 342 342 343 346 350 349 347 346 342 337 336 335 335 335 334 334 334
306 307 309 312 314 314 315 317 317 318 317 318 320 321 321 322 325 324 323 323 323 323 324 324 324 338 340 341 340 342 346 347 346 345 340 338 335 333 334 334 334 335 335 334
310 308 307 307 309 314 314 316 317 317 317 318 319 320 321 321 322 324 324 323 323 323 324 328 338 339 340 342 343 345 345 344 340 339 336 334 334 336 334 335 335 334 334 333
315 314 309 309 308 309 312 312 316 318 318 319 318 321 321 321 323 324 323 323 323 325 332 339 339 338 339 341 343 343 342 340 338 336 335 334 335 335 336 335 335 334 334 333
313 313 314 315 308 308 309 313 315 319 320 319 318 320 321 321 322 323 323 322 331 338 338 338 337 337 339 341 341 341 340 337 337 336 335 335 334 335 335 334 332 333 332 333
315 314 314 312 312 310 309 310 314 315 318 318 319 319 319 320 320 324 324 326 338 338 338 338 336 337 339 339 339 340 338 337 337 334 335 334 335 335 334 334 333 333 333 329
311 312 310 310 311 312 314 311 315 314 318 320 321 320 321 323 323 322 326 330 338 337 337 336 336 337 338 338 339 339 338 337 335 334 335 334 336 334 334 333 332 332 332 332
310 311 311 310 310 312 315 311 311 314 315 319 322 321 322 325 324 324 326 337 337 336 336 336 337 337 337 339 338 338 337 336 335 334 334 332 332 334 332 332 331 331 331 330
313 315 318 315 312 312 313 315 312 315 317 318 320 322 327 330 326 325 335 337 335 336 335 337 336 336 336 337 338 337 336 335 332 334 334 334 334 333 331 331 330 329 328 328
314 314 316 316 314 313 315 318 314 314 318 317 321 320 321 324 328 328 337 337 336 335 335 336 336 336 335 336 336 337 335 333 333 335 333 335 335 333 333 331 328 328 328 328
312 312 314 317 318 318 321 321 321 316 318 319 320 321 320 322 326 335 337 336 336 335 336 336 335 335 334 335 335 334 333 332 333 334 334 335 334 333 331 331 329 330 328 328
313 317 315 315 317 317 317 318 317 320 319 320 320 322 322 328 337 337 336 335 335 336 336 335 335 334 334 334 333 332 332 331 331 334 334 335 332 332 331 330 329 329 328 329
314 319 317 318 316 316 317 315 316 318 321 321 317 320 324 328 337 337 336 335 336 336 336 335 335 334 334 332 330 330 330 330 334 335 336 333 332 332 330 329 328 331 329 330
314 314 316 317 317 317 318 314 314 318 321 322 318 320 329 333 336 334 334 334 335 335 335 335 335 334 333 330 329 329 330 332 334 334 336 334 331 332 330 330 329 331 331 329
310 311 316 322 320 319 315 321 321 320 322 330 322 322 332 333 332 331 329 331 333 335 334 334 334 333 331 330 328 329 329 331 334 334 334 334 332 330 330 331 330 331 329 330
309 312 316 324 323 320 321 322 324 326 335 332 331 332 331 331 331 331 330 331 332 332 333 332 334 333 331 328 328 329 328 329 333 333 333 333 333 332 332 332 331 331 330 330
311 312 316 321 322 327 319 318 319 322 337 331 329 330 333 331 335 332 329 330 330 330 333 334 334 332 329 328 328 329 328 328 329 332 332 332 330 331 332 332 331 331 331 331
317 318 319 319 322 321 317 316 318 332 332 327 327 327 329 330 328 326 329 329 329 330 333 335 333 331 329 327 327 328 327 327 329 332 332 332 331 332 333 333 332 331 332 332
317 319 320 320 320 324 314 318 325 324 323 325 325 326 328 329 328 329 329 329 330 331 331 335 333 331 329 327 327 328 326 326 329 332 333 332 333 335 334 334 335 333 332 332
318 316 315 318 317 313 313 317 317 318 322 321 324 324 324 327 328 328 330 331 331 332 332 335 334 331 329 327 327 328 326 326 329 333 334 333 335 334 333 335 334 334 331 331
314 314 316 318 315 315 315 316 316 316 318 319 319 322 321 323 324 325 328 329 332 332 333 333 334 331 329 327 326 327 327 325 329 334 334 334 335 335 335 334 334 334 332 331
314 314 314 314 315 315 315 315 315 314 317 319 318 319 321 321 322 323 324 325 327 327 331 333 335 332 330 328 327 327 327 325 330 334 333 336 335 333 334 335 334 332 334 332
313 313 315 315 314 314 314 314 314 314 316 318 317 319 321 321 321 322 323 324 324 327 331 332 335 334 331 329 328 328 328 325 330 334 333 334 334 334 333 331 327 330 331 334
Wind_Speed
8 8 21 37 21 15 12 22 22 16 19 18 23 22 27 22 11 14 17 11 14 10 11 19 15 15 16 10 10 23 24 29 32 32 29 26 21 20 19 18 14 17 16 16
9 23 27 15 16 18 21 22 23 14 13 14 21 18 24 22 18 21 22 19 11 9 8 7 6 11 13 17 17 18 23 31 33 32 28 29 23 22 19 16 19 16 16 17
16 15 16 21 20 21 25 25 19 21 12 22 15 16 20 20 11 10 10 9 10 11 10 9 10 10 22 20 20 20 23 31 29 30 25 22 19 18 17 18 19 20 19 14
15 18 21 21 26 20 23 17 23 21 13 18 7 18 25 16 17 16 16 13 12 10 8 9 9 10 21 22 22 22 23 26 24 28 26 26 19 13 16 18 17 17 16 12
24 14 10 20 22 18 25 14 19 14 17 16 17 10 26 11 12 6 10 11 11 11 11 12 11 13 24 26 24 22 24 24 23 27 21 18 21 12 17 14 15 15 13 9
16 16 18 20 17 20 17 17 19 14 12 11 20 15 30 16 14 9 10 10 10 11 13 5 13 24 21 26 26 26 26 21 21 20 18 19 14 10 14 19 17 12 7 6
13 18 16 20 17 19 15 11 7 9 10 17 14 13 22 6 14 18 14 12 11 9 9 17 18 15 18 22 27 26 24 20 21 20 18 15 14 12 13 10 8 8 4 2
9 10 9 10 18 11 13 14 10 13 13 16 12 10 10 17 17 22 18 11 5 13 15 15 14 14 18 22 25 24 23 23 19 20 17 14 11 10 8 7 7 6 5 6
3 7 12 16 18 15 20 17 18 17 11 7 7 14 22 27 22 15 7 6 14 14 15 16 12 11 19 21 24 26 27 22 19 18 16 14 10 9 11 9 8 7 7 9
4 9 10 17 14 14 10 12 6 11 14 14 6 10 11 10 19 18 10 10 14 14 15 15 13 13 19 22 27 26 25 22 20 18 16 14 13 11 11 8 9 7 8 9
8 4 14 10 4 9 10 14 11 6 10 12 5 9 15 16 14 14 10 18 18 16 16 14 14 17 21 23 26 27 25 23 22 19 18 15 13 14 11 9 9 9 7 9
4 3 7 12 16 16 14 20 16 9 13 10 4 9 2 4 9 12 19 18 16 18 16 16 15 14 17 20 24 26 26 23 22 19 17 18 16 12 10 10 10 9 10 8
3 3 5 6 7 9 8 12 13 6 6 20 10 13 6 10 6 11 18 18 17 18 17 16 14 14 12 17 21 24 25 24 21 21 20 18 15 12 11 12 10 11 9 9
3 3 7 7 14 10 11 20 16 12 10 7 18 19 10 18 7 17 18 19 19 17 18 16 14 13 12 19 20 25 23 24 21 19 22 20 15 13 13 12 12 8 10 6
3 5 8 15 20 11 13 19 19 17 14 12 11 11 12 9 15 19 18 18 18 18 19 16 15 13 13 16 22 25 22 24 19 26 24 18 16 14 13 12 10 6 11 9
5 4 7 14 18 10 14 20 20 19 21 15 20 15 10 10 14 14 18 19 19 19 18 16 16 14 15 16 21 24 27 24 24 27 22 20 18 16 14 12 8 6 9 16
7 5 4 5 5 7 5 17 21 15 17 18 19 9 6 9 8 9 15 16 18 18 18 16 17 14 13 21 27 23 26 23 29 25 22 22 17 16 14 13 12 9 10 11
10 10 1 5 3 4 2 9 11 12 13 20 19 13 15 18 12 12 13 10 10 18 17 15 13 12 21 29 30 23 27 24 28 22 20 21 22 20 17 16 14 12 11 10
14 6 3 3 3 7 10 15 10 10 13 16 20 19 15 8 17 7 7 6 6 4 14 14 21 24 26 29 30 29 26 23 27 20 22 26 24 19 17 16 13 11 12 12
10 8 4 3 3 3 4 17 21 19 7 13 9 12 3 12 6 1 6 2 7 6 6 14 25 28 28 31 31 29 25 22 21 23 22 25 24 24 21 20 17 13 12 13
1 3 3 3 3 5 15 26 26 4 1 16 8 7 9 2 3 4 2 4 5 5 7 24 28 24 27 35 32 25 25 21 19 31 24 29 25 23 20 17 13 11 11 13
3 4 1 1 3 3 14 16 6 5 12 14 5 7 5 2 4 7 6 7 7 8 8 22 19 22 28 36 32 24 23 23 19 19 31 30 26 24 19 18 15 14 13 20
2 5 3 6 2 2 13 12 9 11 11 10 7 7 8 7 8 8 7 8 5 4 5 12 22 20 25 33 33 23 28 23 19 24 32 32 27 24 22 21 18 19 18 22
5 6 4 2 5 5 6 13 14 16 11 12 12 6 8 8 10 9 10 12 11 4 3 2 19 18 19 29 33 27 29 24 21 30 29 31 29 27 24 22 21 23 21 21
3 3 6 3 3 4 3 10 16 14 14 13 13 10 10 9 8 9 11 13 12 11 13 1 15 17 22 29 32 28 30 25 23 32 31 29 30 27 23 22 21 22 23 24
3 3 3 2 7 5 12 5 13 16 14 10 11 12 13 10 8 10 11 10 11 12 17 9 12 19 24 29 31 29 31 28 27 28 27 27 28 28 25 20 11 17 17 26
Wind_Direction
250 218 219 222 220 239 260 236 245 247 237 257 254 260 269 265 256 265 272 264 261 227 224 230 246 256 238 236 209 203 191 190 186 174 172 181 167 173 184 196 192 197 207 213
233 229 231 242 236 235 246 264 261 271 249 251 257 254 255 253 256 250 251 252 248 236 246 260 262 244 199 160 158 159 174 179 175 170 169 178 175 167 168 189 204 208 197 197
233 247 228 238 232 237 229 240 254 258 287 284 298 292 278 281 272 257 247 244 233 213 216 221 232 189 155 148 143 149 162 167 167 164 163 168 168 170 191 206 206 204 204 209
260 255 241 250 230 234 242 233 239 254 252 257 248 271 265 269 266 261 266 258 249 240 235 224 230 145 153 149 146 144 148 155 152 162 164 167 159 171 196 203 197 195 193 206
242 274 257 250 249 227 250 236 251 241 241 258 252 262 267 211 238 270 267 250 244 237 218 222 224 142 144 142 139 146 150 147 152 161 161 165 170 160 174 192 146 146 164 184
262 244 252 264 275 240 262 242 251 259 258 260 238 233 266 243 248 243 257 260 251 250 227 138 111 121 125 135 137 142 144 136 146 156 158 152 144 181 149 144 142 151 172 231
254 267 248 251 266 269 258 225 245 237 233 239 218 235 239 259 222 239 245 252 261 251 121 125 130 132 133 127 131 141 145 142 137 150 156 160 136 124 118 120 141 146 178 215
268 276 272 257 234 263 252 230 217 214 219 251 262 243 238 242 245 242 251 240 125 106 116 122 127 128 129 129 134 141 145 142 136 142 140 137 134 131 136 130 144 165 180 190
14 257 282 302 302 231 252 251 230 252 279 245 243 236 264 259 257 252 219 166 128 123 125 124 123 123 128 132 141 143 146 143 139 143 142 141 137 147 128 122 141 141 158 157
297 290 274 286 313 301 258 251 241 221 234 255 243 243 253 274 249 228 192 136 130 125 123 127 125 126 133 140 146 147 148 148 148 155 152 149 142 140 138 134 142 142 158 163
345 263 272 290 247 272 290 242 243 278 210 235 254 268 254 245 213 193 157 142 135 131 133 132 129 132 138 140 147 151 154 155 158 159 160 165 160 145 146 130 143 157 144 163
32 293 290 285 276 268 272 283 239 225 228 238 215 265 249 108 146 135 144 141 136 133 136 133 134 135 137 141 147 153 156 159 162 168 172 162 151 150 146 143 151 159 159 180
35 308 302 285 232 226 248 268 247 236 241 223 237 242 304 295 158 136 141 136 133 134 133 135 137 140 142 142 148 155 160 163 170 168 169 153 147 153 159 159 154 156 186 197
143 257 250 276 301 312 291 316 325 262 237 229 227 259 282 270 209 131 137 137 140 142 137 142 142 147 141 149 151 160 164 166 176 172 166 154 154 162 165 164 177 190 178 170
130 257 252 274 283 279 266 284 299 304 261 230 233 263 224 268 140 138 139 136 140 138 144 148 149 148 145 151 152 166 167 168 177 155 158 152 147 155 159 164 175 146 172 141
203 256 268 286 275 194 251 268 281 278 281 267 247 245 289 258 129 131 141 141 142 146 150 151 150 148 153 150 155 167 163 173 151 153 156 145 150 158 159 167 178 129 143 142
201 237 323 289 183 163 298 256 263 261 274 276 243 196 228 96 73 139 139 142 147 150 154 152 155 152 151 150 158 163 162 151 152 158 154 153 152 158 163 170 174 158 148 149
239 261 160 256 139 198 232 339 228 237 278 320 251 169 110 95 74 38 53 66 144 149 157 152 152 146 149 154 160 157 156 148 156 162 158 158 165 166 168 174 176 170 160 161
212 220 248 270 222 334 351 350 354 336 25 356 73 64 22 349 85 13 8 64 52 55 166 155 149 148 147 149 155 153 156 158 163 164 163 158 166 173 171 172 174 169 163 158
197 188 172 15 299 279 184 324 331 314 63 343 15 76 28 4 100 247 318 8 23 16 130 142 144 145 144 152 155 154 159 175 177 169 170 167 161 158 163 160 168 180 186 179
53 344 237 198 194 246 335 333 307 121 40 311 330 50 52 9 227 182 127 31 17 7 84 142 146 149 150 154 158 156 167 182 193 171 164 167 163 159 157 156 163 165 168 167
353 308 300 209 44 336 360 317 57 333 321 294 344 16 51 326 6 37 35 48 25 4 54 144 144 147 150 156 159 159 170 190 189 161 157 160 157 148 152 151 152 145 137 138
355 347 325 354 75 332 325 333 346 306 255 323 49 2 6 3 20 19 16 35 32 15 20 150 146 146 151 158 164 162 177 192 182 146 153 160 157 154 149 151 156 152 148 146
341 6 356 17 1 311 314 334 331 321 328 359 10 3 7 28 10 5 21 26 13 49 250 58 156 152 152 161 169 175 179 193 179 146 151 158 157 157 158 160 168 165 162 162
325 308 339 319 300 323 1 338 309 318 335 360 355 2 358 27 10 10 21 16 9 357 0 208 164 163 158 163 172 176 180 192 171 153 159 154 157 161 166 170 185 182 180 178
318 327 354 292 324 325 314 307 308 329 330 345 351 351 10 18 23 15 17 11 359 343 324 331 165 173 167 165 173 179 182 193 173 155 163 160 160 167 173 172 152 170 188 203